| time (UTC) | temp C | wind direction | speed KPH | gust KPH | rain 1hr cm | rain 24hr cm | rain mn cm | humidity % | barometer mb |
| 20260507000048 | 11 | 0 | 0.0 | 1.6 | 0.10 | 0.94 | 0.94 | 90 | 1006.0 |
| 20260506234547 | 12 | 0 | 0.0 | 0.0 | 0.13 | 0.94 | 0.94 | 90 | 1005.7 |
| 20260506233046 | 12 | 94 | 0.0 | 1.6 | 0.15 | 0.91 | 0.91 | 89 | 1005.8 |
| 20260506231602 | 13 | 94 | 0.0 | 1.6 | 0.13 | 0.89 | 0.89 | 90 | 1005.5 |
| 20260506230109 | 13 | 94 | 0.0 | 4.8 | 0.08 | 0.84 | 0.84 | 90 | 1005.3 |
| 20260506224546 | 14 | 0 | 0.0 | 3.2 | 0.03 | 0.81 | 0.79 | 91 | 1005.0 |
| 20260506223045 | 15 | 0 | 0.0 | 4.8 | 0.00 | 0.79 | 0.76 | 92 | 1004.9 |
| 20260506221555 | 15 | 92 | 0.0 | 6.4 | 0.05 | 0.79 | 0.76 | 93 | 1004.6 |
| 20260506220100 | 15 | 0 | 0.0 | 3.2 | 0.28 | 0.79 | 0.76 | 94 | 1004.5 |
| 20260506214550 | 15 | 0 | 0.0 | 3.2 | 0.28 | 0.99 | 0.76 | 94 | 1004.3 |
| 20260506213103 | 15 | 360 | 0.0 | 4.8 | 0.28 | 0.99 | 0.76 | 94 | 1004.0 |
| 20260506211543 | 15 | 0 | 0.0 | 3.2 | 0.25 | 0.94 | 0.71 | 94 | 1004.1 |
| 20260506210054 | 15 | 355 | 0.0 | 3.2 | 0.03 | 0.71 | 0.48 | 94 | 1004.3 |
| 20260506204543 | 15 | 334 | 3.2 | 12.9 | 0.03 | 0.79 | 0.48 | 94 | 1004.3 |
| 20260506203039 | 15 | 0 | 0.0 | 6.4 | 0.05 | 0.79 | 0.48 | 94 | 1004.3 |
| 20260506201548 | 15 | 0 | 0.0 | 9.7 | 0.05 | 0.76 | 0.46 | 94 | 1004.4 |
| 20260506200043 | 15 | 0 | 1.6 | 14.5 | 0.10 | 0.76 | 0.46 | 94 | 1004.6 |
| 20260506194543 | 15 | 63 | 1.6 | 16.1 | 0.15 | 0.76 | 0.46 | 94 | 1004.6 |
| 20260506193044 | 15 | 138 | 1.6 | 8.0 | 0.15 | 0.74 | 0.43 | 94 | 1004.8 |
| 20260506191550 | 15 | 319 | 1.6 | 6.4 | 0.18 | 0.71 | 0.41 | 94 | 1005.1 |
| 20260506190045 | 15 | 0 | 3.2 | 6.4 | 0.18 | 0.66 | 0.36 | 94 | 1005.2 |
| 20260506184556 | 15 | 0 | 1.6 | 12.9 | 0.15 | 0.61 | 0.30 | 93 | 1005.4 |
| 20260506183045 | 15 | 98 | 3.2 | 12.9 | 0.18 | 0.58 | 0.28 | 93 | 1005.3 |
| 20260506181545 | 15 | 328 | 4.8 | 14.5 | 0.15 | 0.53 | 0.23 | 93 | 1005.6 |
| 20260506180041 | 15 | 15 | 4.8 | 20.9 | 0.15 | 0.48 | 0.18 | 93 | 1005.7 |
| 20260506174543 | 15 | 65 | 3.2 | 14.5 | 0.13 | 0.46 | 0.15 | 93 | 1005.9 |
| 20260506173050 | 15 | 134 | 1.6 | 6.4 | 0.10 | 0.41 | 0.10 | 92 | 1006.1 |
| 20260506171559 | 15 | 0 | 0.0 | 6.4 | 0.08 | 0.38 | 0.08 | 91 | 1006.2 |
| 20260506170057 | 15 | 296 | 0.0 | 4.8 | 0.03 | 0.33 | 0.03 | 91 | 1006.1 |
| 20260506164548 | 15 | 281 | 1.6 | 8.0 | 0.03 | 0.33 | 0.03 | 90 | 1006.5 |
| 20260506163043 | 15 | 258 | 3.2 | 8.0 | 0.00 | 0.30 | 0.00 | 89 | 1006.6 |
| 20260506161547 | 15 | 0 | 0.0 | 4.8 | 0.00 | 0.30 | 0.00 | 90 | 1006.5 |
| 20260506160059 | 15 | 0 | 0.0 | 3.2 | 0.00 | 0.30 | 0.00 | 90 | 1007.0 |
| 20260506154554 | 15 | 79 | 0.0 | 6.4 | 0.00 | 0.30 | 0.00 | 90 | 1007.4 |
| 20260506153048 | 14 | 0 | 0.0 | 3.2 | 0.00 | 0.30 | 0.00 | 91 | 1007.8 |
| 20260506151545 | 14 | 0 | 0.0 | 0.0 | 0.00 | 0.30 | 0.00 | 88 | 1008.0 |
| 20260506150053 | 15 | 0 | 0.0 | 0.0 | 0.00 | 0.30 | 0.00 | 89 | 1007.7 |
| 20260506144558 | 15 | 0 | 0.0 | 0.0 | 0.00 | 0.30 | 0.00 | 88 | 1007.7 |
| 20260506143044 | 15 | 0 | 0.0 | 0.0 | 0.00 | 0.30 | 0.00 | 88 | 1007.7 |
| 20260506141545 | 14 | 0 | 0.0 | 1.6 | 0.00 | 0.30 | 0.00 | 89 | 1007.8 |
| 20260506140045 | 13 | 0 | 1.6 | 6.4 | 0.00 | 0.30 | 0.00 | 89 | 1007.9 |
| 20260506134547 | 13 | 0 | 0.0 | 0.0 | 0.00 | 0.30 | 0.00 | 88 | 1007.7 |
| 20260506133042 | 14 | 0 | 0.0 | 0.0 | 0.00 | 0.30 | 0.00 | 89 | 1007.8 |
| 20260506131557 | 13 | 0 | 0.0 | 0.0 | 0.00 | 0.30 | 0.00 | 91 | 1008.3 |
| 20260506130050 | 13 | 0 | 0.0 | 0.0 | 0.00 | 0.30 | 0.00 | 91 | 1008.6 |
| 20260506124546 | 13 | 0 | 0.0 | 0.0 | 0.00 | 0.30 | 0.00 | 91 | 1008.2 |
| 20260506123051 | 13 | 0 | 0.0 | 1.6 | 0.00 | 0.30 | 0.00 | 93 | 1008.3 |
| 20260506121550 | 12 | 0 | 0.0 | 4.8 | 0.00 | 0.30 | 0.00 | 95 | 1008.1 |
| 20260506120055 | 12 | 309 | 1.6 | 6.4 | 0.00 | 0.30 | 0.00 | 96 | 1008.3 |
| 20260506114552 | 11 | 80 | 0.0 | 3.2 | 0.00 | 0.30 | 0.00 | 95 | 1008.4 |
| 20260506113043 | 11 | 0 | 0.0 | 3.2 | 0.00 | 0.30 | 0.00 | 95 | 1008.6 |
| 20260506111541 | 11 | 79 | 1.6 | 4.8 | 0.00 | 0.30 | 0.00 | 94 | 1008.3 |
| 20260506110052 | 11 | 0 | 1.6 | 3.2 | 0.00 | 0.30 | 0.00 | 93 | 1008.5 |
| 20260506104551 | 11 | 0 | 0.0 | 0.0 | 0.00 | 0.30 | 0.00 | 92 | 1008.5 |
| 20260506103049 | 11 | 0 | 0.0 | 0.0 | 0.00 | 0.30 | 0.00 | 92 | 1008.6 |
| 20260506101546 | 11 | 0 | 0.0 | 0.0 | 0.00 | 0.30 | 0.00 | 92 | 1008.7 |
| 20260506100055 | 11 | 0 | 0.0 | 0.0 | 0.00 | 0.30 | 0.00 | 92 | 1008.5 |
| 20260506094543 | 11 | 0 | 0.0 | 0.0 | 0.00 | 0.30 | 0.00 | 92 | 1008.3 |
| 20260506093046 | 11 | 0 | 0.0 | 0.0 | 0.00 | 0.30 | 0.00 | 92 | 1008.5 |
| 20260506091552 | 11 | 0 | 0.0 | 0.0 | 0.00 | 0.30 | 0.00 | 92 | 1008.3 |
| 20260506090045 | 11 | 0 | 0.0 | 0.0 | 0.00 | 0.30 | 0.00 | 91 | 1008.6 |
| 20260506084543 | 12 | 0 | 0.0 | 0.0 | 0.00 | 0.30 | 0.00 | 91 | 1008.6 |
| 20260506083040 | 12 | 0 | 0.0 | 0.0 | 0.00 | 0.30 | 0.00 | 91 | 1008.7 |
| 20260506081548 | 12 | 0 | 0.0 | 0.0 | 0.00 | 0.30 | 0.00 | 91 | 1008.8 |
| 20260506073042 | 12 | 0 | 0.0 | 0.0 | 0.00 | 0.30 | 0.00 | 91 | 1008.8 |
| 20260506071538 | 12 | 0 | 0.0 | 0.0 | 0.00 | 0.30 | 0.00 | 91 | 1008.9 |
| 20260506061542 | 13 | 0 | 0.0 | 0.0 | 0.00 | 0.30 | 0.00 | 89 | 1008.6 |
| 20260506044546 | 15 | 0 | 0.0 | 3.2 | 0.00 | 0.30 | 0.00 | 83 | 1008.6 |
| 20260506043046 | 16 | 0 | 0.0 | 0.0 | 0.00 | 0.30 | 0.00 | 82 | 1008.2 |
| 20260506041548 | 16 | 0 | 0.0 | 3.2 | 0.00 | 0.30 | 0.00 | 81 | 1008.4 |
| 20260506040048 | 17 | 0 | 0.0 | 4.8 | 0.00 | 0.30 | 0.00 | 78 | 1008.4 |
| 20260506034542 | 17 | 340 | 3.2 | 12.9 | 0.00 | 0.30 | 0.30 | 76 | 1008.2 |
| 20260506033043 | 17 | 302 | 3.2 | 9.7 | 0.00 | 0.30 | 0.30 | 76 | 1008.1 |
| 20260506031545 | 17 | 309 | 3.2 | 9.7 | 0.00 | 0.30 | 0.30 | 76 | 1008.2 |
| 20260506030057 | 17 | 298 | 4.8 | 17.7 | 0.00 | 0.30 | 0.30 | 77 | 1008.3 |
| 20260506024554 | 16 | 317 | 3.2 | 14.5 | 0.00 | 0.30 | 0.30 | 80 | 1008.2 |
| 20260506023041 | 15 | 320 | 3.2 | 11.3 | 0.00 | 0.30 | 0.30 | 85 | 1008.1 |
| 20260506021547 | 15 | 311 | 0.0 | 6.4 | 0.00 | 0.30 | 0.30 | 90 | 1008.1 |
| 20260506020046 | 15 | 0 | 0.0 | 4.8 | 0.00 | 0.30 | 0.30 | 91 | 1007.9 |
| 20260506014557 | 14 | 0 | 0.0 | 4.8 | 0.00 | 0.30 | 0.30 | 92 | 1007.7 |
| 20260506013044 | 14 | 0 | 0.0 | 0.0 | 0.00 | 0.30 | 0.30 | 92 | 1007.8 |
| 20260506011546 | 14 | 0 | 0.0 | 0.0 | 0.00 | 0.30 | 0.30 | 93 | 1007.8 |
| 20260506010053 | 14 | 0 | 0.0 | 3.2 | 0.00 | 0.30 | 0.30 | 93 | 1007.6 |
| 20260506004550 | 15 | 0 | 0.0 | 1.6 | 0.00 | 0.30 | 0.30 | 93 | 1007.5 |
| 20260506003044 | 15 | 0 | 0.0 | 3.2 | 0.00 | 0.30 | 0.30 | 93 | 1007.6 |
| 20260506001546 | 15 | 321 | 0.0 | 0.0 | 0.00 | 0.30 | 0.30 | 93 | 1007.6 |